AAL1264 KCLE-KCLT

Flight info

Callsign AAL1264
Flight time N/A
Altitude 35000
Route CAVVS5 APE HVQ LNDIZ PARQR4
Aircraft A321/M-SDE3FGHIRWY/LB1

Departure

Time 2026-05-06 16:15
Airport Cleveland Hopkins International Airport (KCLE)

Arrival

Time N/A
Airport Charlotte Douglas International Airport (KCLT)
Time Latitude Longitude Altitude Speed Heading
2026-05-06 15:57 41.40944 -81.84024 760 ft 0 kts 144°
2026-05-06 16:06 41.40960 -81.84039 778 ft 4 kts 148°
2026-05-06 16:06 41.40984 -81.84057 779 ft 4 kts 156°
2026-05-06 16:06 41.41009 -81.84067 779 ft 4 kts 182°
2026-05-06 16:06 41.41026 -81.84059 779 ft 2 kts 250°
2026-05-06 16:07 41.41027 -81.84057 779 ft 0 kts 251°
2026-05-06 16:09 41.41027 -81.84058 781 ft 0 kts 251°
2026-05-06 16:10 41.41019 -81.84090 781 ft 7 kts 251°
2026-05-06 16:10 41.41020 -81.84157 781 ft 8 kts 290°
2026-05-06 16:10 41.41045 -81.84223 781 ft 7 kts 295°
2026-05-06 16:10 41.41058 -81.84291 781 ft 8 kts 275°
2026-05-06 16:11 41.41060 -81.84367 780 ft 7 kts 280°
2026-05-06 16:11 41.41097 -81.84421 779 ft 10 kts 323°
2026-05-06 16:11 41.41162 -81.84491 779 ft 12 kts 326°
2026-05-06 16:11 41.41233 -81.84452 779 ft 13 kts 49°
2026-05-06 16:12 41.41293 -81.84356 781 ft 14 kts 51°
2026-05-06 16:12 41.41357 -81.84252 780 ft 15 kts 50°
2026-05-06 16:12 41.41416 -81.84160 780 ft 11 kts 49°
2026-05-06 16:12 41.41452 -81.84138 780 ft 4 kts 356°
2026-05-06 16:13 41.41457 -81.84142 780 ft 3 kts 332°
2026-05-06 16:13 41.41489 -81.84172 780 ft 7 kts 321°
2026-05-06 16:13 41.41522 -81.84212 780 ft 5 kts 314°
2026-05-06 16:13 41.41522 -81.84222 780 ft 1 kts 256°
2026-05-06 16:14 41.41510 -81.84243 780 ft 1 kts 230°
2026-05-06 16:14 41.41432 -81.84366 779 ft 51 kts 230°
2026-05-06 16:14 41.41046 -81.84975 782 ft 119 kts 230°
2026-05-06 16:15 41.40388 -81.86019 793 ft 171 kts 230°
2026-05-06 16:15 41.39611 -81.87195 1509 ft 169 kts 233°
2026-05-06 16:15 41.38811 -81.88402 2074 ft 181 kts 227°
2026-05-06 16:15 41.37638 -81.89296 2315 ft 209 kts 200°
2026-05-06 16:16 41.36176 -81.89922 2502 ft 232 kts 200°
2026-05-06 16:16 41.34553 -81.90611 2719 ft 258 kts 199°
2026-05-06 16:16 41.32869 -81.91325 3242 ft 270 kts 199°